This is the latest recevied weather packets stored in our database for station/object BV1EV-2. If no packets are shown the sender has not sent any weather packets the latest 10 day(s).
| Time | Temp. | Humidity | Pressure | Rain* | Wind** | Luminosity | Snow |
|---|---|---|---|---|---|---|---|
| 1777621068 | 27.78° C | 51% | 1012.8 hPa | - | - | - | - |
| 1777619868 | 27.78° C | 52% | 1012.8 hPa | - | - | - | - |
| 1777618667 | 27.22° C | 52% | 1012.9 hPa | - | - | - | - |
| 1777617468 | 27.78° C | 52% | 1013 hPa | - | - | - | - |
| 1777616267 | 27.78° C | 52% | 1013.2 hPa | - | - | - | - |
| 1777615067 | 27.22° C | 53% | 1013.3 hPa | - | - | - | - |
| 1777613867 | 27.22° C | 53% | 1013.4 hPa | - | - | - | - |
| 1777612668 | 27.22° C | 52% | 1013.6 hPa | - | - | - | - |
| 1777611467 | 27.22° C | 52% | 1013.9 hPa | - | - | - | - |
| 1777610267 | 27.22° C | 52% | 1014.1 hPa | - | - | - | - |
| 1777609067 | 27.22° C | 52% | 1014.3 hPa | - | - | - | - |
| 1777607867 | 27.22° C | 53% | 1014.6 hPa | - | - | - | - |
| 1777606667 | 27.22° C | 52% | 1014.8 hPa | - | - | - | - |
| 1777605467 | 27.22° C | 51% | 1015 hPa | - | - | - | - |
| 1777604267 | 30° C | 44% | 1015.1 hPa | - | - | - | - |
| 1777603067 | 29.44° C | 44% | 1015.2 hPa | - | - | - | - |
| 1777601868 | 29.44° C | 44% | 1015.2 hPa | - | - | - | - |
| 1777600667 | 28.89° C | 44% | 1015.3 hPa | - | - | - | - |
| 1777599467 | 29.44° C | 44% | 1015.3 hPa | - | - | - | - |
| 1777598267 | 29.44° C | 43% | 1015.4 hPa | - | - | - | - |
| 1777597067 | 28.89° C | 43% | 1015.5 hPa | - | - | - | - |
| 1777595867 | 28.89° C | 43% | 1015.4 hPa | - | - | - | - |
| 1777594667 | 28.89° C | 44% | 1015.4 hPa | - | - | - | - |
| 1777593468 | 28.89° C | 44% | 1015.4 hPa | - | - | - | - |
| 1777592268 | 28.89° C | 45% | 1015.4 hPa | - | - | - | - |
* Rain since midnight (hover to see other rain measurements)
** Current wind speed in m/s (hover to see current wind gust speed)